Regional Weather Roundup
Issued by NWS

Home | Current Version | Previous Version | Text Only | Print | Product List | Glossary On
Versions: 1 2 3 4 5 6 7 8 9 10 11 12 13 14 15 16 17 18 19 20 21 22 23 24 25 26 27
000
ASUS45 KREV 190010
RWRNV
NEVADA REGIONAL WEATHER ROUNDUP
NATIONAL WEATHER SERVICE RENO NV
400 PM PST WED JAN 18 2017

NOTE: "FAIR" INDICATES FEW OR NO CLOUDS BELOW 12,000 FEET WITH NO
SIGNIFICANT WEATHER AND/OR OBSTRUCTIONS TO VISIBILITY.

NVZ001-003-004-190100-
WESTERN NEVADA

CITY           SKY/WX    TMP DP  RH WIND       PRES   REMARKS
RENO           LGT RAIN  45  36  70 S12       29.70F
6HR MIN TEMP:  36; 6HR MAX TEMP:  47; 6HR PCP:  0.02;

CARSON CITY    MIX PCPN  41  36  81 NW3       29.78F
MINDEN         CLOUDY    41  32  70 S31G41    29.76F
PYRAMID LAKE     N/A     37 N/A N/A SE14        N/A
FALLON         LGT RAIN  36  32  85 CALM      29.80S FOG
6HR MIN TEMP:  33; 6HR MAX TEMP:  37; 6HR PCP:  0.05;

LOVELOCK       LGT RAIN  33  31  92 CALM      29.81R
6HR MIN TEMP:  31; 6HR MAX TEMP:  34; 6HR PCP:  0.03;

HAWTHORNE        N/A    N/A N/A N/A MISG        N/A
$$

NVZ002-CAZ072-073-190100-
NORTHERN AND CENTRAL SIERRA

CITY           SKY/WX    TMP DP  RH WIND       PRES   REMARKS
S. LAKE TAHOE  LGT SNOW  35  31  85 S15G25    29.78F VSB 3/4
6HR MIN TEMP:  35; 6HR MAX TEMP:  44; 6HR PCP:  0.19;

TRUCKEE        LGT SNOW  34  32  93 SW7       29.78F VSB 1
                   6HR MAX TEMP:  39;

SQUAW VLY 8000   N/A     28  28 100 SW23        N/A
SUSANVILLE     LGT RAIN  37  34  87 NW10      29.69F
MAMMOTH LAKES  LGT SNOW  31  28  88 W7        29.92S
6HR MIN TEMP:  27; 6HR MAX TEMP:  37;

BRIDGEPORT     LGT SNOW  34  28  79 SW16G29   29.82F VSB 3/4
$$

NVZ030-031-036-190100-
NORTHERN NEVADA

CITY           SKY/WX    TMP DP  RH WIND       PRES   REMARKS
ELKO           FLURRIES  27  17  66 NE7       29.87F
6HR MIN TEMP:  15; 6HR MAX TEMP:  28; 6HR PCP: TRACE;

WINNEMUCCA     NOT AVBL
WENDOVER       CLOUDY    25  18  74 CALM      29.99S
$$

NVZ035-037-190100-
CENTRAL NEVADA

CITY           SKY/WX    TMP DP  RH WIND       PRES   REMARKS
ELY            CLOUDY    37  19  48 S9G21     29.90F
6HR MIN TEMP:  26; 6HR MAX TEMP:  42;

EUREKA           N/A     35  24  64 E5        29.86F
6HR MIN TEMP:  27; 6HR MAX TEMP:  40;

$$

NVZ013-014-190100-
SOUTH CENTRAL NEVADA

CITY           SKY/WX    TMP DP  RH WIND       PRES   REMARKS
TONOPAH        CLOUDY    39  14  36 SW10      29.93S
6HR MIN TEMP:  30; 6HR MAX TEMP:  43;

$$

NVZ017-020-022-190100-
SOUTHERN NEVADA

CITY           SKY/WX    TMP DP  RH WIND       PRES   REMARKS
LAS VEGAS      MOCLDY    55  24  30 NE5       29.96F
6HR MIN TEMP:  48; 6HR MAX TEMP:  55;

N. LAS VEGAS   PTCLDY    54  23  30 SE5       29.97S
6HR MIN TEMP:  46; 6HR MAX TEMP:  54;

NELLIS AFB     PTCLDY    55  26  32 NE7       29.97S
6HR MIN TEMP:  43; 6HR MAX TEMP:  56;

HENDERSON      PTCLDY    54  27  35 N5        29.98F
6HR MIN TEMP:  47; 6HR MAX TEMP:  55;

MERCURY        MOCLDY    52  21  29 S8        29.94S
6HR MIN TEMP:  44; 6HR MAX TEMP:  52;

$$




USA.gov is the U.S. government's official web portal to all federal, state and local government web resources and services.